Wind_Speed
58 58 58 58 58 59 59 60 61 61 61 62 62 62 63 63 64 64 64 64 65 65 65 66 66 66 66 66 65 64 65 66 66 66 66 67 68 68 67 65 64 64
61 61 60 61 60 61 61 61 62 62 63 63 64 64 65 65 66 65 65 65 66 66 67 67 68 68 68 68 67 67 66 67 68 69 68 68 69 70 71 70 68 66
63 63 63 63 63 63 63 63 63 63 64 64 65 66 67 67 67 67 67 67 67 68 68 69 69 70 70 70 70 69 69 69 69 70 71 70 70 70 72 73 72 70
65 66 65 65 65 65 66 66 65 65 65 65 66 67 68 69 69 69 69 69 69 69 70 70 70 71 72 72 72 72 71 71 71 71 72 72 73 72 72 73 74 74
68 68 68 68 67 67 67 67 67 67 67 67 67 68 69 69 70 71 71 71 71 72 72 72 72 72 72 73 73 73 74 74 74 73 73 73 74 75 74 74 74 75
70 70 71 71 70 70 69 69 69 69 69 69 69 69 69 70 71 72 72 72 73 74 74 74 74 73 73 73 74 74 75 76 76 76 75 75 76 76 77 77 76 76
72 72 72 72 73 73 72 72 71 71 71 71 72 71 71 71 72 72 73 73 74 74 75 76 76 76 75 75 75 75 76 77 77 78 78 77 77 77 78 79 79 78
73 73 74 74 74 74 74 74 73 73 73 73 73 73 73 74 74 74 74 74 75 75 76 76 77 77 77 77 76 76 77 78 78 79 79 80 80 79 80 81 81 80
73 74 75 75 75 75 75 75 75 74 74 74 74 74 75 75 76 76 76 76 76 76 76 76 77 78 78 78 78 78 78 79 79 80 80 81 81 81 82 82 82 82
73 74 74 75 76 76 76 76 76 75 75 75 76 76 76 76 77 78 78 78 77 77 77 77 77 78 78 78 79 79 80 80 80 81 81 81 82 83 83 83 83 83
74 74 74 74 75 76 76 76 76 76 76 77 77 77 77 77 77 78 79 79 80 80 79 78 78 78 79 79 79 80 80 81 81 82 82 82 82 83 83 84 84 84
76 75 75 75 76 76 75 76 76 76 77 77 77 77 77 77 77 78 78 79 81 82 82 81 80 79 79 79 80 81 81 81 82 82 82 82 83 83 83 84 84 84
80 79 78 77 77 77 76 76 76 76 76 76 76 77 77 77 77 77 78 79 80 82 83 83 82 81 81 81 82 82 82 82 82 82 82 82 82 83 83 84 84 84
83 82 81 80 79 79 78 78 78 78 77 77 77 77 77 77 77 78 78 79 80 81 82 83 84 84 83 83 83 84 84 83 83 82 82 82 82 83 83 83 83 84
86 86 85 84 83 82 81 81 80 80 79 79 79 79 79 79 79 79 79 80 81 81 82 82 84 85 85 86 86 85 85 84 84 84 83 83 83 83 83 83 83 83
89 88 88 87 86 85 84 84 83 83 82 82 82 82 81 81 81 81 81 81 81 81 82 83 84 85 86 88 88 87 87 86 85 85 85 85 84 84 84 84 84 84
90 90 90 89 88 88 87 87 86 86 85 85 84 84 84 84 83 83 83 83 82 83 83 83 84 86 87 89 89 89 88 87 87 87 86 86 86 86 86 86 85 85
92 91 91 90 90 89 89 88 88 88 87 87 87 86 86 86 86 86 85 85 84 84 84 85 86 87 89 90 90 90 89 89 88 88 88 87 87 87 87 87 87 86
93 93 93 92 92 91 90 90 89 89 89 88 88 88 87 88 88 87 87 87 86 86 86 87 87 89 90 91 91 91 91 90 89 89 89 88 88 88 88 88 88 87
91 92 92 92 92 92 91 91 91 90 90 90 90 89 89 89 89 88 88 88 87 88 88 88 89 91 92 92 92 92 92 91 90 90 89 89 89 89 89 89 88 88
88 88 89 89 90 90 89 89 89 90 90 91 90 90 91 91 90 89 89 89 88 88 88 89 90 92 93 94 94 94 94 93 92 91 90 90 90 90 89 89 89 88
84 84 85 85 85 85 85 85 85 86 87 87 87 87 88 88 87 87 87 88 88 88 88 89 90 92 93 94 95 96 96 95 94 93 92 91 91 91 90 89 89 89
78 79 80 81 81 81 81 81 81 81 82 82 82 83 83 83 82 82 82 83 84 85 85 87 89 91 93 94 95 96 96 96 95 94 93 92 92 91 91 91 90 90
70 72 74 76 76 76 77 77 78 78 78 78 78 79 78 77 76 76 77 77 78 80 81 83 85 88 91 92 94 95 95 95 95 94 93 93 93 93 93 92 92 91
65 66 68 69 70 70 71 73 74 74 74 74 74 73 72 72 72 72 72 74 75 76 78 80 82 84 87 88 90 91 92 93 93 92 92 93 93 94 94 93 93 93
62 62 63 64 64 64 66 68 69 69 69 69 68 67 66 67 67 67 68 70 71 73 75 77 78 80 81 82 83 85 86 88 89 90 91 92 93 93 94 94 94 94
Wind_Direction
253 252 252 251 251 251 250 250 249 249 248 248 247 247 246 246 245 244 243 243 242 242 242 242 243 243 243 242 242 241 240 241 240 238 234 231 230 232 233 232 231 231
254 254 253 252 251 251 251 251 250 250 249 249 248 248 247 247 247 246 245 244 243 243 242 242 242 242 243 243 242 242 241 241 241 241 239 236 232 231 232 233 233 232
255 254 254 253 252 251 251 251 251 250 250 249 249 248 248 248 248 247 246 245 245 244 244 243 242 242 242 243 242 242 242 241 241 241 241 240 238 235 233 232 233 233
255 255 254 253 253 252 252 251 251 250 250 250 250 249 249 248 248 248 248 247 246 245 245 244 244 243 242 242 242 242 242 242 241 241 241 241 241 240 237 235 233 233
255 254 255 254 254 253 252 252 251 251 251 250 250 250 249 249 249 248 248 248 247 247 246 245 244 244 244 243 242 242 242 242 242 241 240 241 241 242 242 240 237 235
255 255 254 254 254 254 253 253 252 252 251 251 251 250 250 249 249 249 248 248 248 247 247 246 245 245 244 244 243 242 242 241 242 242 241 240 241 241 242 243 241 239
256 256 255 254 254 254 253 253 253 252 252 251 251 251 250 250 250 249 249 248 248 247 247 247 247 246 245 244 244 244 243 242 241 241 241 241 240 240 241 242 243 242
256 256 256 255 255 255 254 254 253 253 253 252 252 252 251 251 250 250 249 249 248 248 248 247 247 247 246 245 245 244 244 243 243 242 241 241 241 240 240 240 241 242
255 255 255 255 255 255 255 255 254 254 253 253 253 253 252 252 251 251 250 250 249 249 248 248 247 247 247 246 246 245 245 244 244 243 242 241 241 241 241 240 240 241
256 256 256 256 255 255 255 255 255 255 254 254 254 254 253 253 252 252 251 251 250 250 249 248 248 248 247 246 246 246 245 245 244 244 243 242 241 241 241 241 241 241
257 257 257 256 256 256 256 255 255 255 255 254 254 254 254 254 253 252 252 251 251 251 250 248 248 247 247 247 246 246 246 245 245 245 244 243 242 242 241 241 241 241
258 258 257 257 257 257 257 257 256 256 256 255 255 255 255 255 254 253 252 252 251 251 251 250 248 248 247 247 247 246 246 245 245 245 245 244 244 243 242 241 241 241
259 258 258 257 257 257 257 257 257 257 256 256 256 256 256 255 255 254 253 252 252 251 251 251 250 249 248 247 247 247 246 246 246 245 245 245 245 244 243 242 241 241
259 259 258 258 257 257 257 257 257 257 256 256 256 256 255 255 255 255 254 253 253 252 252 251 251 250 249 248 247 247 247 246 246 246 246 246 246 245 245 244 243 242
259 259 259 258 258 258 257 257 257 257 257 256 256 256 255 255 255 254 254 254 253 253 253 252 252 251 250 249 248 247 247 247 247 247 246 246 246 246 246 246 245 244
259 259 259 259 259 259 258 258 258 257 257 257 257 256 256 255 255 255 254 254 254 254 253 253 253 252 251 250 249 248 248 247 247 247 247 247 247 247 247 247 246 245
259 259 259 259 260 260 260 259 259 259 259 258 258 257 257 256 256 256 255 255 254 254 254 253 253 253 252 252 251 249 248 248 247 247 247 247 247 247 247 247 247 246
259 260 260 260 260 260 260 260 260 260 260 260 260 259 258 258 257 256 256 255 255 254 254 254 253 253 253 253 252 251 250 249 248 247 247 247 247 246 247 247 247 247
259 260 260 260 261 261 261 261 262 262 261 261 261 260 260 259 259 258 257 256 256 255 254 254 254 253 253 253 252 252 251 250 249 248 247 247 246 246 246 247 247 247
260 260 261 261 261 261 262 262 263 263 263 263 262 262 262 261 260 260 259 258 257 256 255 255 254 254 253 253 253 252 252 251 250 249 248 247 246 246 246 246 246 247
261 261 262 262 262 262 263 263 263 263 264 264 264 264 263 263 262 262 261 260 259 257 256 255 255 254 254 253 253 252 252 251 250 249 248 248 247 246 246 246 246 246
261 262 262 263 263 263 264 264 264 264 264 264 265 265 264 264 264 263 263 262 261 259 258 257 255 255 254 253 253 252 252 251 250 250 249 248 248 247 247 246 246 246
262 262 262 263 263 264 264 265 265 265 265 265 266 265 265 266 265 265 264 263 262 261 259 257 256 255 254 253 252 252 251 251 250 250 249 249 248 248 247 247 246 246
264 263 263 263 263 264 264 264 265 265 265 266 266 266 266 267 266 266 265 264 263 262 260 258 257 256 255 253 252 252 251 251 251 250 250 249 248 248 248 247 246 246
268 266 265 264 264 264 264 264 264 264 265 265 265 266 267 267 266 266 265 264 263 262 260 259 258 257 256 255 254 253 252 251 251 250 250 249 249 248 247 247 246 246
269 268 267 266 265 265 264 263 263 264 264 265 266 266 266 266 265 264 263 263 262 261 260 259 259 259 258 257 256 255 254 252 251 250 250 249 249 248 248 247 246 246
Height
10599 10600 10602 10603 10605 10606 10607 10609 10611 10613 10615 10617 10618 10620 10621 10622 10624 10626 10629 10631 10633 10635 10637 10639 10640 10642 10644 10646 10649 10652 10654 10656 10659 10661 10664 10668 10670 10672 10675 10678 10680 10682
10590 10592 10593 10595 10597 10598 10599 10601 10603 10605 10607 10609 10610 10612 10613 10614 10616 10618 10621 10623 10625 10627 10629 10631 10633 10634 10636 10638 10641 10645 10647 10649 10651 10653 10656 10660 10662 10665 10668 10670 10673 10676
10582 10583 10584 10586 10588 10589 10591 10593 10594 10596 10598 10600 10602 10603 10605 10606 10608 10610 10612 10615 10617 10618 10620 10622 10624 10626 10628 10630 10633 10636 10639 10641 10643 10645 10648 10651 10654 10657 10660 10662 10665 10668
10573 10574 10575 10577 10579 10580 10582 10583 10585 10588 10590 10591 10593 10594 10596 10598 10600 10602 10604 10606 10608 10609 10611 10613 10615 10617 10619 10621 10625 10628 10630 10632 10635 10637 10640 10642 10645 10648 10651 10653 10657 10660
10564 10564 10566 10567 10569 10571 10573 10574 10576 10579 10581 10582 10584 10585 10587 10590 10591 10593 10595 10597 10599 10600 10602 10604 10606 10608 10610 10613 10616 10619 10621 10623 10625 10628 10632 10635 10636 10639 10642 10644 10648 10651
10554 10555 10556 10558 10559 10561 10563 10565 10567 10569 10571 10573 10574 10576 10578 10580 10582 10583 10585 10587 10589 10591 10592 10594 10597 10599 10602 10604 10607 10610 10611 10613 10616 10618 10623 10626 10628 10631 10633 10635 10639 10642
10544 10546 10547 10548 10549 10551 10553 10555 10558 10559 10561 10563 10564 10566 10568 10570 10571 10573 10575 10577 10579 10581 10583 10585 10587 10589 10592 10595 10598 10600 10602 10604 10606 10609 10613 10617 10619 10622 10624 10626 10629 10632
10534 10535 10536 10538 10539 10541 10543 10545 10548 10549 10551 10553 10554 10556 10558 10560 10561 10563 10565 10567 10569 10571 10573 10575 10577 10579 10582 10585 10588 10591 10592 10594 10597 10599 10603 10606 10609 10612 10615 10617 10620 10623
10524 10525 10526 10528 10529 10531 10533 10535 10537 10540 10541 10543 10544 10545 10548 10549 10551 10553 10555 10557 10559 10561 10563 10565 10567 10569 10572 10575 10578 10580 10582 10584 10586 10588 10592 10596 10599 10602 10604 10607 10611 10615
10513 10515 10516 10518 10519 10520 10523 10524 10527 10529 10530 10532 10533 10535 10537 10539 10541 10543 10545 10547 10549 10550 10553 10555 10557 10559 10562 10565 10567 10569 10571 10573 10575 10578 10581 10585 10588 10591 10594 10598 10603 10606
10502 10504 10506 10507 10508 10509 10512 10514 10516 10518 10519 10521 10523 10524 10526 10528 10530 10532 10534 10536 10537 10539 10541 10544 10547 10549 10551 10554 10556 10558 10560 10562 10564 10567 10571 10574 10577 10581 10584 10588 10593 10597
10491 10494 10495 10497 10498 10499 10502 10504 10505 10507 10509 10511 10512 10514 10516 10517 10519 10521 10523 10525 10526 10527 10530 10532 10536 10539 10541 10543 10545 10546 10548 10550 10553 10556 10560 10564 10567 10570 10574 10578 10583 10588
10480 10482 10484 10486 10487 10489 10491 10493 10494 10496 10498 10500 10502 10503 10505 10506 10508 10510 10512 10514 10515 10516 10518 10521 10524 10528 10530 10532 10533 10534 10537 10540 10543 10547 10550 10553 10556 10559 10563 10567 10572 10577
10468 10470 10472 10474 10476 10478 10480 10481 10483 10485 10487 10489 10491 10492 10494 10495 10497 10499 10500 10502 10503 10505 10508 10510 10513 10516 10518 10520 10521 10523 10526 10529 10533 10537 10540 10543 10546 10549 10552 10557 10561 10566
10457 10458 10460 10462 10464 10466 10468 10470 10472 10473 10475 10477 10479 10480 10482 10484 10486 10487 10489 10490 10492 10494 10497 10499 10502 10503 10505 10506 10508 10511 10515 10519 10523 10526 10530 10533 10536 10539 10542 10546 10550 10555
10445 10447 10448 10450 10452 10454 10456 10458 10460 10461 10463 10465 10467 10468 10470 10473 10475 10476 10477 10479 10482 10484 10486 10488 10490 10491 10492 10493 10495 10499 10504 10508 10512 10515 10519 10523 10526 10529 10532 10535 10539 10543
10433 10435 10436 10438 10440 10442 10444 10446 10447 10449 10451 10452 10454 10456 10458 10461 10462 10464 10466 10468 10471 10473 10475 10477 10478 10479 10479 10480 10482 10486 10491 10496 10500 10504 10508 10512 10516 10518 10521 10524 10528 10532
10420 10422 10424 10426 10428 10430 10431 10433 10434 10436 10438 10440 10442 10444 10446 10448 10449 10451 10453 10456 10459 10461 10463 10465 10466 10465 10465 10467 10469 10473 10478 10483 10488 10493 10496 10500 10504 10507 10511 10514 10517 10521
10407 10409 10412 10413 10415 10417 10419 10420 10422 10424 10426 10427 10429 10431 10433 10434 10435 10437 10440 10443 10445 10448 10450 10452 10453 10452 10452 10453 10456 10460 10464 10470 10475 10480 10484 10488 10492 10496 10500 10503 10506 10510
10395 10397 10399 10401 10402 10405 10406 10408 10410 10411 10413 10414 10415 10418 10419 10419 10421 10424 10426 10428 10431 10434 10436 10438 10439 10439 10439 10440 10443 10447 10450 10456 10461 10466 10471 10476 10480 10483 10488 10492 10495 10499
10383 10386 10387 10388 10390 10392 10394 10396 10397 10398 10399 10399 10401 10404 10404 10404 10407 10410 10412 10414 10416 10419 10422 10424 10424 10424 10424 10426 10429 10432 10435 10441 10447 10452 10457 10462 10466 10471 10475 10480 10484 10489
10372 10374 10376 10377 10378 10380 10382 10384 10385 10386 10386 10386 10388 10390 10389 10390 10394 10396 10397 10398 10401 10403 10406 10408 10408 10408 10409 10412 10414 10417 10420 10426 10432 10438 10444 10449 10453 10458 10463 10468 10473 10477
10362 10364 10364 10365 10367 10368 10370 10371 10372 10373 10373 10374 10376 10376 10375 10377 10381 10382 10382 10383 10385 10387 10389 10392 10391 10391 10393 10395 10398 10401 10405 10411 10417 10423 10429 10435 10440 10444 10449 10455 10460 10464
10351 10352 10353 10354 10355 10357 10358 10359 10359 10360 10361 10362 10363 10363 10364 10366 10368 10368 10368 10369 10370 10371 10372 10374 10375 10374 10375 10379 10382 10385 10390 10396 10402 10409 10415 10421 10425 10430 10434 10440 10445 10450
10341 10341 10342 10343 10345 10346 10347 10347 10348 10349 10350 10351 10351 10352 10354 10355 10355 10355 10356 10356 10356 10357 10357 10358 10359 10359 10360 10364 10368 10371 10376 10383 10389 10395 10401 10406 10409 10414 10419 10424 10430 10435
10331 10332 10332 10333 10334 10335 10336 10336 10337 10338 10340 10340 10341 10343 10344 10344 10343 10344 10344 10344 10343 10344 10344 10345 10346 10347 10348 10351 10355 10358 10362 10368 10374 10380 10386 10389 10393 10398 10403 10409 10414 10419